www.pogodaiklimat.ru
ПОГОДА в Ангрене

Архив погоды в Ангрене (Ташкентская область, Узбекистан)

Время
и дата
11:10 26.05
11:20 26.05
11:30 26.05
11:50 26.05
12:00 26.05
12:10 26.05
12:20 26.05
12:30 26.05
12:40 26.05
12:50 26.05
13:00 26.05
13:20 26.05
13:40 26.05
14:00 26.05
14:10 26.05
14:20 26.05
14:40 26.05
14:50 26.05
15:10 26.05
15:20 26.05
15:30 26.05
15:40 26.05
15:50 26.05
16:10 26.05
16:20 26.05
16:40 26.05
17:00 26.05
17:10 26.05
17:20 26.05
17:30 26.05
17:40 26.05
17:50 26.05
18:00 26.05
18:20 26.05
18:30 26.05
18:40 26.05
18:50 26.05
19:00 26.05
19:10 26.05
19:30 26.05
19:40 26.05
19:50 26.05
20:10 26.05
20:20 26.05
20:40 26.05
21:00 26.05
21:10 26.05
21:20 26.05
21:30 26.05
21:50 26.05
22:00 26.05
22:10 26.05
22:20 26.05
22:40 26.05
22:50 26.05
23:00 26.05
23:20 26.05
23:30 26.05
23:40 26.05
23:50 26.05
00:00 27.05
00:10 27.05
00:20 27.05
00:40 27.05
00:50 27.05
01:00 27.05
01:10 27.05
01:20 27.05
01:30 27.05
01:40 27.05
01:50 27.05
02:00 27.05
02:10 27.05
02:20 27.05
02:30 27.05
02:50 27.05
03:00 27.05
03:20 27.05
03:30 27.05
03:40 27.05
03:50 27.05
04:00 27.05
04:10 27.05
04:20 27.05
04:30 27.05
04:40 27.05
04:50 27.05
05:00 27.05
05:10 27.05
05:20 27.05
05:30 27.05
05:40 27.05
06:00 27.05
06:10 27.05
06:20 27.05
06:30 27.05
06:40 27.05
07:00 27.05
07:20 27.05
07:40 27.05
07:50 27.05
08:00 27.05
08:10 27.05
08:20 27.05
08:30 27.05
08:40 27.05
08:50 27.05
09:00 27.05
09:10 27.05
09:30 27.05
09:40 27.05
09:50 27.05
10:10 27.05
10:20 27.05
10:40 27.05
10:50 27.05
11:00 27.05
11:10 27.05
11:20 27.05
11:30 27.05
11:40 27.05
11:50 27.05
12:10 27.05
12:30 27.05
12:40 27.05
12:50 27.05
13:10 27.05
13:20 27.05
13:30 27.05
13:50 27.05
14:00 27.05
14:20 27.05
14:30 27.05
14:40 27.05
14:50 27.05
15:00 27.05
15:10 27.05
15:20 27.05
15:30 27.05
15:50 27.05
16:00 27.05
16:10 27.05
16:30 27.05
16:50 27.05
Ветер
(напр.,м/с)
Видимость Явления Солнечная радиация
(Вт/м2)
Т
(С)
Тd
(С)
f
(%)
Тe
(С)
Тes
(С)
Комфортность P
(гПа)
Po
(гПа)
Тmin
(С)
Tmax
(С)
R
(мм)
ЮЗ 3.0
{5.4}
+14.4 +2.9 46 +14 +14 1025.5 916.0 +15.1 +14.3
ЮЗ 3.1
{5.3}
+14.8 +2.3 43 +14 +14 1025.5 916.0 +15.1 +14.4
Ю 2.9
{5.6}
+15.1 +4.1 48 +15 +15 1025.5 916.0 +15.4 +14.7
Ю 3.4
{6.9}
+15.0 +3.2 45 +14 +14 1025.4 915.9 +15.7 +15.0
ЮЗ 3.2
{6.7}
+15.6 +4.2 46 +15 +15 1025.4 915.9 +15.7 +15.0
ЮЗ 3.2
{7.2}
+15.9 +3.6 44 +16 +16 1025.4 915.9 +16.0 +15.5
ЮЗ 3.2
{7.0}
+16.4 +3.8 43 +16 +16 1025.4 915.9 +16.4 +15.9
ЮЗ 2.8
{6.3}
+16.3 +5.1 47 +16 +16 1025.4 915.9 +16.6 +16.1
ЮЗ 3.2
{6.3}
+16.5 +4.0 43 +16 +16 1025.4 915.9 +16.8 +16.3
ЮЗ 2.9
{6.5}
+16.8 +3.5 41 +17 +17 1025.5 916.0 +16.9 +16.5
ЮЗ 3.7
{7.3}
+16.5 +4.9 46 +16 +16 1025.4 915.9 +17.2 +16.3
ЮЗ 3.4
{7.0}
+17.3 +4.4 42 +17 +17 1025.4 915.9 +17.3 +16.8
ЮЗ 3.4
{8.1}
+17.0 +4.0 42 +17 +17 1025.3 915.8 +17.2 +16.5
ЮЗ 3.5
{7.1}
+17.0 +4.1 42 +17 +17 1025.2 915.7 +17.3 +16.9
ЮЗ 3.3
{6.4}
+17.1 +4.0 42 +17 +17 1025.2 915.7 +17.1 +16.7
Ю 3.8
{7.7}
+16.7 +4.4 44 +16 +16 1025.2 915.7 +17.1 +16.5
ЮЗ 3.8
{7.4}
+17.2 +3.9 41 +17 +17 1025.2 915.7 +17.3 +16.9
ЮЗ 4.1
{7.1}
+17.1 +4.2 43 +17 +17 1025.2 915.7 +17.3 +16.8
ЮЗ 4.1
{7.9}
+17.1 +4.7 44 +17 +17 1025.0 915.5 +17.1 +16.8
ЮЗ 3.6
{7.8}
+17.3 +4.0 41 +17 +17 1024.9 915.4 +17.3 +17.0
ЮЗ 4.0
{7.0}
+17.0 +5.0 45 +17 +17 1024.9 915.4 +17.3 +16.9
Ю 3.8
{7.4}
+16.9 +4.3 43 +17 +17 1024.8 915.3 +17.1 +16.8
ЮЗ 3.9
{7.8}
+17.1 +5.2 45 +17 +17 1024.8 915.3 +17.1 +16.7
ЮЗ 3.2
{6.8}
+17.0 +4.4 43 +17 +17 1024.8 915.3 +17.4 +16.8
ЮЗ 3.3
{6.7}
+17.0 +4.1 42 +17 +17 1024.8 915.3 +17.1 +16.9
ЮЗ 3.2
{5.7}
+17.0 +4.1 42 +17 +17 1024.6 915.2 +17.3 +17.0
Ю 2.6
{5.4}
+17.2 +4.5 43 +17 +17 1024.5 915.1 +17.3 +17.1
ЮЗ 2.1
{4.6}
+17.1 +3.8 41 +17 +17 1024.5 915.1 +17.2 +16.8
ЮЗ 2.6
{4.9}
+16.8 +4.0 42 +17 +17 1024.5 915.1 +17.1 +16.8
Ю 2.5
{4.2}
+16.5 +3.6 42 +17 +17 1024.5 915.1 +16.8 +16.4
Ю 2.5
{4.4}
+16.4 +3.5 42 +16 +16 1024.4 915.0 +16.5 +16.3
Ю 2.4
{4.3}
+16.3 +3.4 42 +16 +16 1024.4 915.0 +16.4 +16.3
ЮЗ 3.2
{4.9}
+16.1 +3.9 44 +16 +16 1024.5 915.1 +16.3 +16.1
ЮЗ 2.8
{5.1}
+15.8 +3.4 43 +16 +16 1024.5 915.1 +15.9 +15.8
ЮЗ 2.3
{4.6}
+15.6 +3.4 44 +16 +16 1024.6 915.2 +15.8 +15.6
ЮЗ 2.2
{4.2}
+15.4 +3.6 45 +15 +15 1024.8 915.3 +15.6 +15.4
ЮЗ 1.7
{4.1}
+15.2 +3.6 46 +15 +15 1024.9 915.4 +15.4 +15.2
ЮЗ 1.3
{2.8}
+15.0 +3.7 47 +15 +15 1025.0 915.5 +15.2 +15.0
ЮЗ 1.7
{2.8}
+14.7 +3.8 48 +15 +15 1025.1 915.6 +15.0 +14.7
ЮЗ 1.5
{2.8}
+14.1 +3.8 50 +14 +14 1025.1 915.6 +14.4 +14.1
З 1.1
{2.1}
+13.8 +4.2 52 +14 +14 1025.1 915.6 +14.1 +13.8
ЮЗ 0.9
{1.8}
+13.3 +4.3 54 +14 +14 1025.1 915.6 +13.8 +13.3
ЮЗ 1.1
{1.7}
+12.4 +4.5 58 +13 +13 1025.0 915.5 +12.8 +12.4
З 0.6
{1.1}
+12.1 +4.6 60 +13 +13 1025.1 915.6 +12.4 +12.1
ЮЗ 0.5
{1.2}
+11.5 +5.6 67 +12 +12 1025.1 915.6 +11.8 +11.5
С 0.8
{1.6}
+11.4 +8.0 80 +12 +12 1025.2 915.7 +11.7 +11.4
С 0.8
{1.3}
+11.4 +8.3 81 +12 +12 1025.2 915.7 +11.4 +11.4
С 0.9
{1.5}
+11.2 +8.7 85 +11 +11 1025.1 915.6 +11.4 +11.2
С 1.0
{1.7}
+11.1 +8.9 86 +11 +11 1025.1 915.6 +11.2 +11.1
С 0.9
{1.9}
+10.8 +9.0 89 +11 +11 1025.0 915.5 +10.9 +10.8
С 1.1
{1.6}
+10.6 +9.3 91 +10 +10 1024.8 915.3 +10.8 +10.6
С 1.0
{1.6}
+10.5 +9.3 92 +10 +10 1024.5 915.1 +10.6 +10.5
С 1.0
{1.5}
+10.3 +9.2 93 +10 +10 1024.3 914.9 +10.5 +10.3
В 0.7
{1.0}
+10.1 +9.0 93 +10 +10 1023.9 914.5 +10.3 +10.1
В 1.0
{2.0}
+10.5 +9.5 93 +10 +10 1023.8 914.4 +10.5 +10.1
СВ 0.7
{1.4}
+10.3 +9.2 93 +10 +10 1023.5 914.2 +10.6 +10.3
С 0.4
{0.9}
+9.6 +9.5 100 +10 +10 1023.3 914.0 +9.8 +9.6
СЗ 0.4
{1.0}
+9.1 +9.1 100 +10 +10 1023.2 913.9 +9.6 +9.1
СЗ 0.5
{1.0}
+9.1 +9.1 100 +9 +9 1023.0 913.7 +9.3 +9.1
СЗ 0.6
{1.0}
+9.0 +9.0 100 +9 +9 1022.9 913.6 +9.2 +9.0
СЗ 0.5
{1.4}
+9.0 +9.0 100 +9 +9 1022.7 913.4 +9.1 +9.0
СВ 0.6
{1.3}
+8.9 +8.9 100 +9 +9 1022.6 913.3 +9.1 +8.9
ЮВ 0.6
{1.0}
+9.3 +9.3 100 +9 +9 1022.5 913.2 +9.3 +8.8
СЗ 0.4
{1.0}
+8.9 +8.9 100 +9 +9 1022.2 913.0 +9.1 +8.9
ЮВ 0.4
{1.3}
+9.1 +9.1 100 +10 +10 1022.0 912.8 +9.1 +8.8
СВ 0.6
{1.7}
+9.3 +9.2 100 +9 +9 1021.8 912.6 +9.3 +9.1
ЮВ 1.1
{1.9}
+9.6 +8.9 95 +9 +9 1021.7 912.5 +9.6 +9.3
ЮЗ 1.3
{2.5}
+9.9 +8.5 91 +9 +9 1021.6 912.4 +9.9 +9.6
С 1.6
{3.4}
+10.9 +7.5 79 +10 +10 1021.5 912.3 +10.9 +9.9
СВ 2.6
{7.4}
+12.9 +6.1 63 +12 +12 1021.2 912.1 +12.9 +10.9
СВ 3.6
{7.0}
+13.7 +5.8 59 +12 +12 1021.0 911.9 +13.7 +12.9
СВ 2.9
{6.1}
+13.7 +5.5 57 +13 +13 1020.9 911.8 +13.9 +13.7
СВ 3.1
{5.7}
+13.6 +5.4 58 +13 +13 1020.8 911.7 +13.8 +13.6
СВ 2.8
{5.5}
+13.3 +4.9 57 +12 +12 1020.7 911.6 +13.6 +13.3
СВ 3.1
{4.9}
+13.6 +4.4 54 +13 +13 1020.6 911.5 +13.6 +13.3
СВ 2.3
{5.3}
+13.4 +4.1 53 +13 +13 1020.5 911.4 +13.7 +13.4
СВ 2.2
{4.6}
+13.4 +3.6 52 +13 +13 1020.4 911.3 +13.7 +13.4
С 2.0
{3.9}
+12.9 +3.2 52 +12 +12 1020.1 911.1 +13.5 +12.9
СВ 3.6
{7.3}
+13.7 +3.1 49 +13 +13 1020.0 911.0 +13.7 +12.9
СВ 3.3
{5.7}
+13.8 +2.9 48 +13 +13 1020.0 911.0 +13.9 +13.7
СВ 2.6
{5.2}
+13.8 +2.8 47 +13 +13 1019.9 910.9 +13.9 +13.8
СВ 2.1
{4.0}
+13.5 +2.6 48 +13 +13 1019.7 910.7 +13.8 +13.4
В 1.9
{4.7}
+13.4 +2.7 48 +13 +13 1019.7 910.7 +13.8 +13.5
В 1.5
{4.1}
+13.0 +2.6 49 +13 +13 1019.7 910.7 +13.4 +12.6
СВ 2.7
{5.7}
+13.6 +2.8 48 +13 +13 1019.6 910.6 +13.7 +13.0
В 1.5
{4.1}
+12.6 +2.1 49 +12 +12 1019.5 910.5 +13.6 +12.6
В 1.5
{4.3}
+12.4 +1.1 46 +12 +12 1019.6 910.6 +12.8 +12.4
Ю 0.8
{2.0}
+11.4 -0.5 44 +12 +12 1019.5 910.5 +12.4 +11.4
В 0.6
{1.5}
+10.7 +0.2 48 +12 +12 1019.5 910.5 +11.4 +10.7
З 0.4
{1.1}
+10.0 +1.2 54 +11 +11 1019.5 910.5 +10.7 +10.0
З 0.7
{1.6}
+10.1 +1.6 55 +11 +11 1019.5 910.5 +10.3 +9.9
З 0.4
{0.8}
+10.5 +2.0 56 +12 +12 1019.4 910.4 +10.5 +10.1
Ю 0.9
{2.2}
+12.6 -0.1 41 +13 +13 1019.3 910.3 +12.6 +11.7
Ю 0.7
{1.9}
+13.2 -0.8 38 +14 +14 1019.3 910.3 +13.2 +12.6
ЮЗ 1.1
{1.8}
+13.5 -1.2 36 +14 +14 1019.3 910.3 +13.7 +13.2
Ю 1.0
{2.5}
+13.8 -0.2 38 +14 +14 1019.3 910.3 +13.8 +13.3
СВ 1.8
{4.6}
+15.3 +2.3 42 +15 +15 1019.2 910.2 +15.3 +13.8
ЮВ 1.1
{2.8}
+15.7 +1.8 39 +16 +16 1019.1 910.1 +15.9 +15.6
Ю 1.4
{2.4}
+15.7 +2.0 40 +16 +16 1018.9 910.0 +15.7 +15.3
Ю 1.4
{2.4}
+16.8 +0.4 33 +18 +18 1018.7 909.8 +16.8 +16.4
ЮВ 1.6
{2.7}
+17.1 +1.5 35 +18 +18 1018.7 909.8 +17.1 +16.8
Ю 1.3
{2.7}
+17.9 +2.2 35 +19 +19 1018.7 909.8 +17.9 +17.1
ЮЗ 1.4
{2.8}
+18.2 +1.0 32 +19 +19 1018.7 909.8 +18.1 +17.7
ЮЗ 1.4
{2.4}
+18.9 0.0 28 +20 +20 1018.7 909.8 +19.0 +18.2
Ю 1.6
{3.3}
+19.0 +1.5 31 +20 +20 1018.6 909.7 +19.3 +18.9
Ю 2.0
{3.4}
+19.1 +1.6 31 +20 +20 1018.6 909.7 +19.0 +18.7
ЮЗ 2.0
{3.8}
+19.7 +1.8 30 +21 +21 комфорт 1018.5 909.6 +19.7 +19.1
Ю 1.9
{4.0}
+19.8 +2.4 32 +21 +21 комфорт 1018.4 909.5 +19.9 +19.7
ЮЗ 2.2
{3.9}
+20.1 +5.2 37 +21 +21 комфорт 1018.3 909.4 +20.1 +19.8
ЮЗ 2.7
{4.3}
+20.4 +5.0 36 +21 +21 комфорт 1018.1 909.2 +20.5 +19.9
ЮЗ 2.7
{4.5}
+20.5 +5.6 38 +22 +22 комфорт 1018.1 909.2 +20.5 +20.2
ЮЗ 2.4
{4.5}
+20.9 +5.4 36 +22 +22 комфорт 1018.0 909.1 +21.0 +20.4
ЮЗ 2.5
{4.5}
+20.9 +4.7 34 +22 +22 комфорт 1017.7 908.9 +21.3 +20.8
ЮЗ 2.6
{4.5}
+21.4 +4.2 32 +22 +22 комфорт 1017.7 908.9 +21.4 +20.9
ЮЗ 2.9
{4.6}
+21.5 +4.1 32 +22 +22 комфорт 1017.7 908.9 +21.7 +21.4
ЮЗ 2.6
{4.7}
+22.2 +4.7 32 +22 +22 комфорт 1017.5 908.7 +22.1 +21.5
ЮЗ 2.7
{4.6}
+22.1 +2.8 28 +22 +22 комфорт 1017.4 908.6 +22.4 +22.1
Ю 2.4
{4.7}
+22.6 +5.7 33 +23 +23 комфорт 1017.4 908.6 +22.5 +22.0
ЮЗ 2.2
{3.9}
+23.3 +3.6 28 +23 +23 комфорт 1017.3 908.5 +23.3 +22.6
ЮЗ 2.2
{4.7}
+23.4 +3.2 27 +23 +23 комфорт 1017.3 908.5 +23.8 +23.3
ЮЗ 2.2
{4.3}
+23.7 +1.8 24 +23 +23 комфорт 1017.2 908.4 +23.7 +23.1
Ю 2.2
{4.8}
+23.6 +0.8 22 +23 +23 комфорт 1017.1 908.3 +23.8 +23.5
ЮЗ 2.3
{4.9}
+24.3 +2.8 25 +24 +24 комфорт 1016.9 908.1 +24.3 +23.7
ЮЗ 2.7
{5.7}
+24.8 +2.8 24 +24 +24 комфорт 1016.8 908.0 +24.7 +23.9
ЮЗ 3.0
{6.1}
+24.5 +2.9 25 +24 +24 комфорт 1016.8 908.0 +25.0 +24.5
ЮЗ 3.3
{6.1}
+24.9 +4.2 26 +24 +24 комфорт 1016.6 907.9 +24.9 +24.3
ЮЗ 3.1
{5.8}
+24.8 +4.6 27 +24 +24 комфорт 1016.5 907.8 +25.0 +24.7
ЮЗ 2.7
{6.5}
+25.3 +4.3 26 +25 +25 комфорт 1016.5 907.8 +25.3 +24.8
ЮЗ 3.2
{6.4}
+25.2 +4.2 26 +25 +25 комфорт 1016.4 907.7 +25.4 +24.9
ЮЗ 3.0
{5.8}
+25.0 +4.4 26 +24 +24 комфорт 1016.4 907.7 +25.2 +25.0
ЮЗ 3.4
{6.0}
+24.9 +3.8 25 +24 +24 комфорт 1016.4 907.7 +25.0 +24.8
ЮЗ 3.4
{7.2}
+25.0 +6.1 30 +25 +25 комфорт 1016.4 907.7 +25.0 +24.7
ЮЗ 3.4
{6.2}
+25.0 +4.1 26 +24 +24 комфорт 1016.4 907.7 +25.2 +25.0
ЮЗ 3.5
{7.6}
+25.0 +4.5 26 +24 +24 комфорт 1016.4 907.7 +25.2 +25.0
ЮЗ 4.2
{7.7}
+24.6 +4.9 28 +24 +24 комфорт 1016.4 907.7 +25.0 +24.6
ЮЗ 3.6
{6.8}
+25.0 +6.3 30 +25 +25 комфорт 1016.4 907.7 +25.0 +24.6
ЮЗ 3.4
{6.2}
+25.0 +5.3 28 +25 +25 комфорт 1016.4 907.7 +25.0 +24.8
ЮЗ 3.1
{5.9}
+25.1 +4.9 27 +25 +25 комфорт 1016.3 907.6 +25.2 +24.9
ЮЗ 3.0
{5.4}
+25.1 +4.5 26 +24 +24 комфорт 1016.3 907.6 +25.2 +24.9
ЮЗ 2.4
{5.4}
+25.3 +4.4 26 +25 +25 комфорт 1016.2 907.5 +25.3 +24.9
ЮЗ 3.2
{5.4}
+25.2 +3.3 24 +24 +24 комфорт 1016.2 907.5 +25.4 +25.1
Ю 3.2
{6.6}
+24.8 +3.2 25 +24 +24 комфорт 1016.2 907.5 +25.2 +24.6
ЮЗ 2.9
{6.2}
+24.9 +3.9 26 +24 +24 комфорт 1016.2 907.5 +24.9 +24.6
ЮЗ 3.1
{5.4}
+24.7 +3.6 25 +24 +24 комфорт 1016.2 907.5 +24.8 +24.6
Местоположение метеостанции Ангрен (Ташкентская область, Узбекистан): широта 41.01 долгота 70.10 высота над уровнем моря 0 м.
В архиве по умолчанию представлена погода в Ангрене за последние 1-2 суток. Обновление информации о фактической погоде в базе происходит ежечасно! Архивные данные за месяц целиком и за предыдущие месяцы Вы можете получить, выбрав интересующий диапазон дат из раскрывающегося списка и нажав кнопку "Ввод!".
*Определитесь, кто Вы:
Внимание! Время в таблицах - местное (без учета летнего времени). Для получения всемирного времени необходимо вычесть поправку, которая равна 5 ч.
Смотрите также архив погоды на ближайших метеорологических станциях:
Партнеры нашего сайта:      
Пояснения к столбцам:
  • Ветер - указаны скорость ветра в м/с - средняя за 10 мин, порывы в срок и между сроками (в фигурных скобках) и направление, откуда дует ветер: С - северный,
  • СВ - северо-восточный, В - восточный, ЮВ - юго-восточный, Ю - южный, ЮЗ - юго-западный, З - западный, СЗ - северо-западный.
  • Видимость - горизонтальная дальность видимости в метрах или километрах. При видимости от 1 до 10 км при отсутствии осадков обычно наблюдается дымка, при ухудшении видимости до 1 км и менее - туман. В сухую погоду видимость может ухудшаться дымом, пылью или мглою.
  • Явления - указаны атмосферные явления, наблюдавшиеся в срок или в последний час перед сроком.
  • Солнечная радиация - мощность потока солнечного излучения на поверхность земли и предметов в Вт/м2.
  • T - Температура воздуха - температура, измеренная на высоте 2 м над землей.
  • Td - Температура точки росы - температура, при понижении до которой содержащийся в воздухе водяной пар достигнет насыщения.
  • f - Относительная влажность воздуха - влажноcть воздуха, измеренная на высоте 2 м над землей.
  • Te - Эффективная температура - температура, которую ощущает одетый по сезону человек в тени. Характеристика душности погоды. При расчете учитывается влияние влажности воздуха и скорости ветра на теплоощущения человека.
  • Tes - Эффективная температура на солнце - температура, которую ощущает человек, с поправкой на солнечный нагрев. Характеристика знойности погоды. Зависит от высоты солнца над горизонтом, облачности и скорости ветра. Ночью, в пасмурную погоду, а также при ветре 12 м/с и более поправка равна нулю.
  • P - Атмосферное давление - приведенное к уровню моря атмосферное давление.
  • Po - Атмосферное давление - измеренное на уровне метеостанции атмосферное давление.
  • Tmin - Минимальная температура - минимум температуры воздуха на высоте 2 м над землей.
  • Tmax - Максимальная температура - максимум температуры воздуха на высоте 2 м над землей.
  • R - Количество осадков - Количество выпавших осадков за период времени, мм. При наведении курсора мыши на число - период времени, за который выпало указанное количество осадков.